SA3PJN-WX Weather Reports


time (UTC)temp
C
wind
direction
speed
KPH
gust
KPH
rain 1hr
cm
rain 24hr
cm
rain mn
cm
humidity
%
barometer
mb
20260509233357 6 182 8.0 20.9 0.00 0.00 0.00 92 969.9
20260509232857 6 182 6.4 19.3 0.00 0.00 0.00 88 969.9
20260509232357 7 187 6.4 19.3 0.00 0.00 0.00 83 970.0
20260509231857 7 91 4.8 19.3 0.00 0.00 0.00 79 970.0
20260509231357 7 144 4.8 19.3 0.00 0.00 0.00 74 969.8
20260509230857 8 193 6.4 14.5 0.00 0.00 0.00 71 969.7
20260509230357 8 137 6.4 16.1 0.00 0.00 0.00 70 969.7
20260509225857 8 222 6.4 16.1 0.00 0.00 0.00 69 969.8
20260509225357 8 174 8.0 14.5 0.00 0.00 0.00 68 969.8
20260509224858 8 177 6.4 14.5 0.00 0.00 0.00 68 969.8
20260509224357 8 234 6.4 14.5 0.00 0.00 0.00 67 969.8
20260509223857 8 141 6.4 14.5 0.00 0.00 0.00 66 969.9
20260509223328 8 212 6.4 16.1 0.00 0.00 0.00 66 969.8
20260509222827 8 206 6.4 16.1 0.00 0.00 0.00 65 969.8
20260509222327 8 266 6.4 17.7 0.00 0.00 0.00 65 969.8
20260509221827 8 239 6.4 17.7 0.00 0.00 0.00 64 969.8
20260509221327 8 256 6.4 17.7 0.00 0.00 0.00 63 969.8
20260509220827 8 266 6.4 20.9 0.00 0.00 0.00 63 969.8
20260509220327 8 271 6.4 20.9 0.00 0.00 0.00 62 969.9
20260509215827 8 83 6.4 20.9 0.00 0.00 0.00 61 969.9
20260509215257 8 195 6.4 12.9 0.00 0.00 0.00 61 969.9
20260509214727 8 169 6.4 14.5 0.00 0.00 0.00 60 970.0
20260509214227 9 194 4.8 16.1 0.00 0.00 0.00 59 970.0
20260509213727 9 252 6.4 16.1 0.00 0.00 0.00 59 970.2
20260509213227 9 246 8.0 24.1 0.00 0.00 0.00 58 970.2
20260509212727 9 280 8.0 24.1 0.00 0.00 0.00 57 970.3
20260509212227 9 248 6.4 24.1 0.00 0.00 0.00 56 970.2
20260509211657 9 21 6.4 19.3 0.00 0.00 0.00 55 970.3
20260509211157 9 193 4.8 16.1 0.00 0.00 0.00 55 970.4
20260509210657 9 226 6.4 16.1 0.00 0.00 0.00 55 970.5
20260509210157 9 229 6.4 17.7 0.00 0.00 0.00 55 970.4
20260509205657 9 234 6.4 30.6 0.00 0.00 0.00 55 970.4
20260509205157 9 187 6.4 30.6 0.00 0.00 0.00 55 970.4
20260509204657 9 214 4.8 19.3 0.00 0.00 0.00 56 970.6
20260509204157 9 195 6.4 16.1 0.00 0.00 0.00 55 970.6
20260509203657 9 260 6.4 20.9 0.00 0.00 0.00 55 970.6
20260509203127 9 288 6.4 20.9 0.00 0.00 0.00 55 970.6
20260509202626 9 233 6.4 20.9 0.00 0.00 0.00 54 970.6
20260509202126 9 266 4.8 12.9 0.00 0.00 0.00 55 970.8
20260509201626 9 235 4.8 14.5 0.00 0.00 0.00 55 970.8
20260509201056 9 256 4.8 14.5 0.00 0.00 0.00 55 970.8
20260509200556 9 264 4.8 14.5 0.00 0.00 0.00 55 970.8
20260509200056 10 268 4.8 14.5 0.00 0.00 0.00 56 970.9
20260509195556 9 298 6.4 14.5 0.00 0.00 0.00 55 970.9
20260509195026 10 210 6.4 19.3 0.00 0.00 0.00 55 971.0
20260509194456 10 240 8.0 19.3 0.00 0.00 0.00 56 970.9
20260509193956 10 190 8.0 17.7 0.00 0.00 0.00 56 970.9
20260509193456 10 175 8.0 17.7 0.00 0.00 0.00 56 970.9
20260509192956 10 231 8.0 19.3 0.00 0.00 0.00 56 971.1
20260509192426 10 224 8.0 19.3 0.00 0.00 0.00 55 970.9
20260509191926 10 226 8.0 16.1 0.00 0.00 0.00 54 971.0
20260509191356 10 234 8.0 32.2 0.00 0.00 0.00 53 971.0
20260509190856 10 179 9.7 32.2 0.00 0.00 0.00 53 971.0
20260509190356 10 259 8.0 29.0 0.00 0.00 0.00 52 970.9
20260509185856 10 240 8.0 17.7 0.00 0.00 0.00 52 971.0
20260509185326 10 266 6.4 22.5 0.00 0.00 0.00 53 971.0
20260509184826 10 227 8.0 24.1 0.00 0.00 0.00 53 970.9
20260509184326 10 228 8.0 24.1 0.00 0.00 0.00 55 971.2
20260509183826 10 67 8.0 16.1 0.00 0.00 0.00 56 971.2
20260509183326 10 28 6.4 16.1 0.00 0.00 0.00 56 971.1
20260509182826 10 21 4.8 9.7 0.00 0.00 0.00 58 971.0
20260509182326 10 270 6.4 9.7 0.00 0.00 0.00 59 971.1
20260509181756 10 15 6.4 9.7 0.00 0.00 0.00 58 971.1
20260509181256 10 14 4.8 8.0 0.00 0.00 0.00 58 971.2
20260509180755 10 12 1.6 6.4 0.00 0.00 0.00 57 971.2
20260509180255 10 44 0.0 4.8 0.00 0.00 0.00 57 971.4
20260509175755 10 308 0.0 3.2 0.00 0.00 0.00 58 971.2
20260509175255 10 128 0.0 3.2 0.00 0.00 0.00 58 971.3
20260509174755 10 91 0.0 4.8 0.00 0.00 0.00 58 971.4
20260509174255 10 226 1.6 6.4 0.00 0.00 0.00 59 971.3
20260509173725 10 70 1.6 6.4 0.00 0.00 0.00 59 971.4
20260509173225 10 98 1.6 8.0 0.00 0.00 0.00 60 971.6
20260509172655 10 46 3.2 8.0 0.00 0.00 0.00 59 971.7
20260509172155 10 134 3.2 8.0 0.00 0.00 0.00 59 971.7
20260509171655 10 131 3.2 9.7 0.00 0.00 0.00 60 971.7
20260509171155 10 158 3.2 9.7 0.00 0.00 0.00 59 971.8
20260509170655 10 159 3.2 9.7 0.00 0.00 0.00 59 971.9
20260509170155 10 203 1.6 8.0 0.00 0.00 0.00 60 971.9
20260509165655 10 317 1.6 8.0 0.00 0.00 0.00 59 971.9
20260509165155 10 358 1.6 8.0 0.00 0.00 0.00 60 972.0
20260509164655 10 67 3.2 11.3 0.00 0.00 0.00 59 972.0
20260509164155 10 30 3.2 16.1 0.00 0.00 0.00 59 972.1
20260509163655 10 130 4.8 17.7 0.00 0.00 0.00 58 972.0
20260509163155 10 135 4.8 17.7 0.00 0.00 0.00 59 972.1
20260509162655 10 36 3.2 11.3 0.00 0.00 0.00 58 972.1
20260509162125 10 103 4.8 12.9 0.00 0.00 0.00 57 972.2
20260509161625 10 163 4.8 19.3 0.00 0.00 0.00 56 972.1
20260509161055 10 155 6.4 19.3 0.00 0.00 0.00 55 972.2
20260509160555 10 166 4.8 14.5 0.00 0.00 0.00 56 972.3
20260509160055 11 203 6.4 16.1 0.00 0.00 0.00 55 972.4
20260509155555 11 162 6.4 19.3 0.00 0.00 0.00 55 972.5
20260509155055 11 171 8.0 20.9 0.00 0.00 0.00 54 972.6
20260509154555 11 166 8.0 22.5 0.00 0.00 0.00 53 972.6
20260509154055 11 127 9.7 22.5 0.00 0.00 0.00 51 972.5
20260509153555 11 132 8.0 17.7 0.00 0.00 0.00 51 972.6
20260509153025 11 188 8.0 20.9 0.00 0.00 0.00 50 972.6
20260509152525 11 157 8.0 20.9 0.00 0.00 0.00 48 972.5
20260509152025 11 152 9.7 20.9 0.00 0.00 0.00 47 972.4
20260509151525 11 176 9.7 17.7 0.00 0.00 0.00 48 972.6
20260509150955 11 164 8.0 17.7 0.00 0.00 0.00 47 972.4
20260509150425 11 181 6.4 17.7 0.00 0.00 0.00 48 972.6
20260509145924 11 215 6.4 17.7 0.00 0.00 0.00 48 972.7
20260509145355 11 230 6.4 12.9 0.00 0.00 0.00 47 972.7
20260509144854 11 270 6.4 12.9 0.00 0.00 0.00 47 972.7
20260509144354 11 246 6.4 17.7 0.00 0.00 0.00 47 972.8
20260509143854 11 200 8.0 19.3 0.00 0.00 0.00 47 972.8
20260509143354 11 173 8.0 20.9 0.00 0.00 0.00 47 972.7
20260509142854 11 248 6.4 20.9 0.00 0.00 0.00 47 972.8
20260509142354 12 222 6.4 19.3 0.00 0.00 0.00 47 973.0
20260509141854 12 237 6.4 19.3 0.00 0.00 0.00 46 973.0
20260509141354 12 246 8.0 20.9 0.00 0.00 0.00 47 973.0
20260509140854 12 262 9.7 24.1 0.00 0.00 0.00 46 973.0
20260509140324 12 236 9.7 24.1 0.00 0.00 0.00 47 973.0
20260509135824 12 252 9.7 27.4 0.00 0.00 0.00 47 973.2
20260509135324 12 255 9.7 35.4 0.00 0.00 0.00 46 973.3
20260509134824 12 265 9.7 35.4 0.00 0.00 0.00 46 973.3
20260509134324 12 297 8.0 22.5 0.00 0.00 0.00 48 973.4
20260509133754 12 172 8.0 22.5 0.00 0.00 0.00 47 973.3
20260509133254 12 249 8.0 19.3 0.00 0.00 0.00 48 973.7
20260509132724 12 207 8.0 25.7 0.00 0.00 0.00 48 973.7
20260509132224 12 218 8.0 25.7 0.00 0.00 0.00 47 973.6
20260509131724 12 233 8.0 25.7 0.00 0.00 0.00 48 973.7
20260509131154 12 192 8.0 19.3 0.00 0.00 0.00 48 973.8
20260509130654 12 255 8.0 32.2 0.00 0.00 0.00 47 973.9
20260509130154 12 206 11.3 32.2 0.00 0.00 0.00 47 973.9
20260509125624 12 222 11.3 24.1 0.00 0.00 0.00 46 974.0
20260509125124 12 201 8.0 22.5 0.00 0.00 0.00 47 974.0
20260509124624 12 202 8.0 16.1 0.00 0.00 0.00 48 974.1
20260509124054 12 286 8.0 32.2 0.00 0.00 0.00 47 974.1
20260509123554 12 208 9.7 45.1 0.00 0.00 0.00 47 974.1
20260509123054 12 243 9.7 45.1 0.00 0.00 0.00 45 974.0
20260509122554 12 255 8.0 22.5 0.00 0.00 0.00 48 974.2
20260509122024 12 265 9.7 37.0 0.00 0.00 0.00 47 974.1
20260509121524 12 237 11.3 37.0 0.00 0.00 0.00 47 974.3
20260509121024 12 229 11.3 38.6 0.00 0.00 0.00 48 974.3
20260509120454 12 202 11.3 38.6 0.00 0.00 0.00 48 974.3
20260509115954 12 204 11.3 40.2 0.00 0.00 0.00 48 974.3
20260509115424 12 219 11.3 40.2 0.00 0.00 0.00 48 974.3
20260509114924 12 201 11.3 33.8 0.00 0.00 0.00 48 974.3
20260509114423 12 198 9.7 29.0 0.00 0.00 0.00 47 974.4
20260509113924 12 254 8.0 29.0 0.00 0.00 0.00 48 974.4
20260509113423 12 269 8.0 27.4 0.00 0.00 0.00 47 974.4
20260509112853 12 309 9.7 29.0 0.00 0.00 0.00 45 974.4
20260509112353 12 143 9.7 29.0 0.00 0.00 0.00 46 974.4
20260509111853 12 294 11.3 35.4 0.00 0.00 0.00 45 974.4
20260509111323 12 21 11.3 35.4 0.00 0.00 0.00 45 974.4
20260509110823 12 174 9.7 35.4 0.00 0.00 0.00 46 974.7
20260509110323 12 204 8.0 24.1 0.00 0.00 0.00 47 974.6
20260509105753 12 198 8.0 22.5 0.00 0.00 0.00 47 974.7
20260509105253 12 83 8.0 25.7 0.00 0.00 0.00 46 974.6
20260509104753 12 216 8.0 25.7 0.00 0.00 0.00 46 974.8
20260509104253 12 246 9.7 37.0 0.00 0.00 0.00 45 974.6
20260509103753 13 203 11.3 37.0 0.00 0.00 0.00 44 974.6
20260509103253 13 138 11.3 41.8 0.00 0.00 0.00 44 974.6
20260509102723 13 45 9.7 41.8 0.00 0.00 0.00 43 974.7
20260509102223 13 196 9.7 41.8 0.00 0.00 0.00 43 974.7
20260509101653 13 257 8.0 22.5 0.00 0.00 0.00 45 974.9
20260509101123 13 228 9.7 29.0 0.00 0.00 0.00 44 974.9
20260509100623 13 193 9.7 29.0 0.00 0.00 0.00 45 974.8
20260509100123 13 149 9.7 29.0 0.00 0.00 0.00 44 975.0
20260509095623 13 186 8.0 22.5 0.00 0.00 0.00 45 975.1
20260509095053 13 91 8.0 25.7 0.00 0.00 0.00 43 975.0
20260509094553 13 257 8.0 25.7 0.00 0.00 0.00 45 975.1
20260509094053 13 194 6.4 24.1 0.00 0.00 0.00 45 975.1
20260509093553 13 235 6.4 14.5 0.00 0.00 0.00 47 975.2
20260509093053 13 201 6.4 14.5 0.00 0.00 0.00 47 975.3
20260509092553 12 325 6.4 14.5 0.00 0.00 0.00 45 975.2
20260509092053 12 200 6.4 17.7 0.00 0.00 0.00 46 975.3
20260509091553 12 271 6.4 17.7 0.00 0.00 0.00 47 975.3
20260509091053 12 219 6.4 17.7 0.00 0.00 0.00 48 975.3
20260509090552 12 182 8.0 17.7 0.00 0.00 0.00 48 975.3
20260509090052 12 223 8.0 17.7 0.00 0.00 0.00 47 975.2
20260509085522 12 172 8.0 20.9 0.00 0.00 0.00 47 975.1
20260509085022 13 172 8.0 20.9 0.00 0.00 0.00 47 975.3
20260509084522 13 262 9.7 20.9 0.00 0.00 0.00 46 975.2
20260509084022 13 215 9.7 22.5 0.00 0.00 0.00 47 975.4
20260509083452 13 231 8.0 22.5 0.00 0.00 0.00 45 975.3
20260509082952 13 182 8.0 20.9 0.00 0.00 0.00 46 975.4
20260509082452 14 257 6.4 20.9 0.00 0.00 0.00 46 975.4
20260509081952 14 144 6.4 19.3 0.00 0.00 0.00 45 975.3
20260509081452 13 184 8.0 20.9 0.00 0.00 0.00 48 975.4
20260509080952 13 143 8.0 20.9 0.00 0.00 0.00 46 975.3
20260509080422 13 246 8.0 33.8 0.00 0.00 0.00 47 975.4
20260509075852 13 226 8.0 33.8 0.00 0.00 0.00 47 975.3
20260509075352 13 225 8.0 27.4 0.00 0.00 0.00 47 975.4
20260509074852 13 246 9.7 27.4 0.00 0.00 0.00 45 975.4
20260509074322 13 49 9.7 33.8 0.00 0.00 0.00 48 975.4
20260509073822 13 82 9.7 33.8 0.00 0.00 0.00 48 975.5
20260509073252 13 107 9.7 30.6 0.00 0.00 0.00 48 975.5
20260509072752 13 61 9.7 30.6 0.00 0.00 0.00 49 975.6
20260509072252 13 195 9.7 30.6 0.00 0.00 0.00 50 975.7
20260509071752 12 194 9.7 25.7 0.00 0.00 0.00 50 975.8
20260509071222 12 206 8.0 29.0 0.00 0.00 0.00 50 975.7
20260509070722 12 205 8.0 29.0 0.00 0.00 0.00 50 975.6
20260509070222 13 249 8.0 24.1 0.00 0.00 0.00 50 975.9
20260509065722 12 217 8.0 24.1 0.00 0.00 0.00 49 975.6
20260509065152 13 242 8.0 20.9 0.00 0.00 0.00 50 975.8
20260509064652 11 252 8.0 24.1 0.00 0.00 0.00 50 975.6
20260509064152 12 246 8.0 35.4 0.00 0.00 0.00 50 975.6
20260509063622 12 197 9.7 35.4 0.00 0.00 0.00 51 975.7
20260509063122 11 171 8.0 20.9 0.00 0.00 0.00 51 975.6
20260509062622 11 213 8.0 30.6 0.00 0.00 0.00 52 975.6
20260509062122 11 52 8.0 30.6 0.00 0.00 0.00 52 975.6
20260509061622 11 167 8.0 25.7 0.00 0.00 0.00 52 975.6
20260509061122 11 260 8.0 17.7 0.00 0.00 0.00 52 975.6
20260509060552 12 208 8.0 25.7 0.00 0.00 0.00 50 975.7
20260509060052 12 248 9.7 25.7 0.00 0.00 0.00 51 975.7
20260509055522 11 201 8.0 20.9 0.00 0.00 0.00 51 975.7
20260509055022 11 244 8.0 25.7 0.00 0.00 0.00 53 975.7
20260509054522 10 263 8.0 27.4 0.00 0.00 0.00 54 975.7
20260509054022 9 248 8.0 30.6 0.00 0.00 0.00 56 975.7
20260509053452 9 212 8.0 30.6 0.00 0.00 0.00 54 975.7
20260509052952 9 99 8.0 27.4 0.00 0.00 0.00 53 975.7
20260509052422 10 175 9.7 37.0 0.00 0.00 0.00 52 975.6
20260509051852 11 163 8.0 37.0 0.00 0.00 0.00 50 975.8
20260509051352 11 247 8.0 35.4 0.00 0.00 0.00 49 975.8
20260509050852 12 0 8.0 35.4 0.00 0.00 0.00 48 975.8
20260509050351 12 199 8.0 19.3 0.00 0.00 0.00 48 975.7
20260509045851 11 190 8.0 17.7 0.00 0.00 0.00 48 975.8
20260509045351 11 268 8.0 20.9 0.00 0.00 0.00 49 975.9
20260509044821 11 247 8.0 27.4 0.00 0.00 0.00 49 975.8
20260509044251 11 230 8.0 27.4 0.00 0.00 0.00 50 975.9
20260509043751 10 254 8.0 20.9 0.00 0.00 0.00 52 975.9
20260509043251 10 243 8.0 20.9 0.00 0.00 0.00 52 975.9
20260509042751 10 196 8.0 19.3 0.00 0.00 0.00 52 976.2
20260509042251 10 338 8.0 19.3 0.00 0.00 0.00 52 976.1
20260509041751 10 197 8.0 19.3 0.00 0.00 0.00 53 976.0
20260509041251 10 255 8.0 17.7 0.00 0.00 0.00 54 976.1
20260509040751 9 185 6.4 16.1 0.00 0.00 0.00 54 976.0
20260509040251 8 231 8.0 22.5 0.00 0.00 0.00 56 976.0
20260509035721 8 64 9.7 27.4 0.00 0.00 0.00 57 976.2
20260509035221 8 59 9.7 27.4 0.00 0.00 0.00 56 976.1
20260509034721 7 219 9.7 25.7 0.00 0.00 0.00 59 976.1
20260509034221 7 97 8.0 22.5 0.00 0.00 0.00 61 976.1
20260509033721 7 222 9.7 25.7 0.00 0.00 0.00 62 976.2
20260509033221 7 211 9.7 25.7 0.00 0.00 0.00 62 976.2
20260509032651 7 77 9.7 25.7 0.00 0.00 0.00 62 976.2
20260509032151 7 46 6.4 19.3 0.00 0.00 0.00 63 976.2
20260509031621 7 46 8.0 20.9 0.00 0.00 0.00 63 976.1
20260509031121 7 91 8.0 20.9 0.00 0.00 0.00 63 976.2
20260509030551 7 34 8.0 19.3 0.00 0.00 0.00 62 976.2
20260509030051 7 52 9.7 29.0 0.00 0.00 0.00 62 976.2
20260509025551 7 58 8.0 29.0 0.00 0.00 0.00 61 976.1
20260509025051 7 68 8.0 29.0 0.00 0.00 0.00 61 976.0
20260509024551 7 44 8.0 22.5 0.00 0.00 0.00 61 976.0
20260509024051 7 79 6.4 20.9 0.00 0.00 0.00 61 976.0
20260509023521 7 204 6.4 17.7 0.00 0.00 0.00 62 976.0
20260509023021 6 288 6.4 17.7 0.00 0.00 0.00 64 976.0
20260509022521 6 58 6.4 17.7 0.00 0.00 0.00 65 976.0
20260509022021 6 164 8.0 17.7 0.00 0.00 0.00 65 976.0
20260509021451 6 67 8.0 17.7 0.00 0.00 0.00 64 976.1
20260509020950 6 57 8.0 20.9 0.00 0.00 0.00 64 976.1
20260509020421 6 95 6.4 20.9 0.00 0.00 0.00 63 976.1
20260509015920 6 99 8.0 19.3 0.00 0.00 0.00 62 976.1
20260509015420 7 31 8.0 19.3 0.00 0.00 0.00 62 976.2
20260509014920 7 0 8.0 19.3 0.00 0.00 0.00 62 976.1
20260509014350 7 78 6.4 17.7 0.00 0.00 0.00 62 976.2
20260509013850 6 87 8.0 19.3 0.00 0.00 0.00 62 976.2
20260509013350 7 62 8.0 19.3 0.00 0.00 0.00 62 976.2
20260509012850 7 54 8.0 19.3 0.00 0.00 0.00 62 976.2
20260509012350 7 75 8.0 17.7 0.00 0.00 0.00 61 976.2
20260509011820 7 73 9.7 20.9 0.00 0.00 0.00 60 976.2
20260509011320 7 54 9.7 20.9 0.00 0.00 0.00 60 976.2
20260509010820 7 44 12.9 22.5 0.00 0.00 0.00 59 976.3
20260509010320 7 77 12.9 25.7 0.00 0.00 0.00 59 976.2
20260509005820 7 47 11.3 25.7 0.00 0.00 0.00 59 976.2
20260509005320 7 68 9.7 22.5 0.00 0.00 0.00 60 976.3
20260509004820 7 76 9.7 22.5 0.00 0.00 0.00 61 976.1
20260509004250 7 117 9.7 20.9 0.00 0.00 0.00 62 976.3
20260509003750 7 73 8.0 20.9 0.00 0.00 0.00 62 976.2
20260509003250 7 105 8.0 19.3 0.00 0.00 0.00 62 976.3
20260509002720 7 63 9.7 20.9 0.00 0.00 0.00 61 976.3
20260509002220 7 62 8.0 20.9 0.00 0.00 0.00 60 976.4
20260509001720 7 57 6.4 20.9 0.00 0.00 0.00 59 976.3
20260509001220 7 8 6.4 20.9 0.00 0.00 0.00 59 976.3
20260509000720 7 209 6.4 17.7 0.00 0.00 0.00 60 976.4
20260509000220 7 50 8.0 17.7 0.00 0.00 0.00 61 976.3
20260508235650 7 217 9.7 20.9 0.00 0.00 0.00 63 976.5
20260508235150 7 64 9.7 20.9 0.00 0.00 0.00 63 976.5
20260508234650 7 95 9.7 17.7 0.00 0.00 0.00 62 976.6
20260508234149 7 51 9.7 17.7 0.00 0.00 0.00 62 976.5